Location: Cran-Gévrier
(45.9039°N, 6.1012°E)
Time: 11:09:06
(UTC+00:00)

PSLV R/B - Pass Details

Date: 09 February 2023
Orbit: 490 x 557 km, 97.8° (Epoch: 31 March)

Event Time Altitude Azimuth Distance (km) Brightness Sun altitude
Rises 17:59:44 0° 156° (SSE) 2,579 7.1 -12.1°
Reaches altitude 10° 18:01:48 10° 153° (SSE) 1,709 6.1 -12.5°
Maximum altitude 18:05:25 59° 74° (ENE) 598 3.7 -13.1°
Drops below altitude 10° 18:09:16 - 354° (N) 1,809 6.5 -13.8°
Sets 18:11:18 0° 351° (N) 2,669 7.4 -14.1°
